You are listening to:
VTSS Approach - Songkhla, Thailand

VTSS 171930Z 08002KT 7000 FEW020 BKN100 25/25 Q1007 NOSIG

If stream doesn't start automatically press the play button
If stream stops then reload player then press play